Weather in Limassol

Cyprus     34°40′24″N   33°01′33″E
temp.,
°C
wind,
m/s
gust,
m/s
humid.,
%
clouds,
%
prec.,
mm/h
press.,
hPa
HPBL,
m
20 april, tue
tue2000:00+23s0128100 0.0 100912
03:00+23wnw3330100 0.0 100922
06:00+22nnw3331100 0.1 100918
09:00+25sw1231100 0.1 1011374
12:00+28sw362280 0.1 1011876
15:00+29wsw689100 0.2 1010986
18:00+25w5713100 0.0 1011542
21:00+19nw332249 0.0 101344
21 april, wed
wed2100:00+16nw22272 0.0 101425
03:00+14nw22322 0.0 101424
06:00+12nw124526 0.0 101518
09:00+18sw123031 0.0 1016478
12:00+22ssw44298 0.0 10171050
15:00+24wsw66195 0.0 10151036
18:00+22w23240 0.0 1015492
21:00+15ese11660 0.0 101813
22 april, thu
thu2200:00+13ese01720 0.0 101811
03:00+12nne12720 0.0 101811
06:00+11n117371 0.0 101810
09:00+17wsw22410 0.0 1019538
12:00+22sw44280 0.0 10181226
15:00+24sw55280 0.0 10171418
18:00+21s32382 0.0 1017699
21:00+16ne33601 0.0 101826
23 april, fri
fri2300:00+14e22755 0.0 101931
03:00+13nnw11655 0.0 101911
06:00+12n11500 0.0 101811
09:00+19se22380 0.0 1019412
12:00+22s42350 0.0 1019856
15:00+23ssw43380 0.0 1017853
18:00+21sw33380 0.0 1017467
21:00+17nne22490 0.0 101711
24 april, sat
sat2400:00+16ene11565 0.0 101611
03:00+15ene11595 0.0 101511
06:00+14nnw00593 0.0 101511
09:00+22sse21355 0.0 1015377
12:00+25s32345 0.0 1015807
15:00+26ssw4332100 0.0 1013876
18:00+25ssw22325 0.0 1012410
21:00+20ne22447 0.0 101311